Regional Weather Roundup
Issued by NWS

Home | Current Version | Previous Version | Graphics & Text | Print | Product List | Glossary On
Versions: 1 2 3 4 5 6 7 8 9 10 11 12 13 14 15 16 17 18 19 20 21 22 23 24 25 26 27 28 29 30 31 32 33 34 35 36 37 38 39 40 41 42 43 44 45 46 47 48 49 50
147
ASUS43 KOAX 192010
RWRNE

WEATHER ROUNDUP FOR NEBRASKA
NATIONAL WEATHER SERVICE OMAHA NE
200 PM CST THU JAN 19 2017

NOTES: SATELLITE DATA IS BEING USED TO AUGMENT CLOUD COVER ABOVE
       12000 FEET.
       "FAIR" INDICATES FEW OR NO CLOUDS BELOW 12,000 FEET WITH NO
       SIGNIFICANT WEATHER AND/OR OBSTRUCTIONS TO VISIBILITY.

  * THESE STATIONS DO NOT REPORT WEATHER SUCH AS RAIN...SNOW OR FOG.

NEZ001>004-019>022-054>056-192100-
NEBRASKA PANHANDLE

CITY           SKY/WX    TMP DP  RH WIND       PRES   REMARKS
SCOTTSBLUFF    SUNNY     50  26  39 E5        29.51F
ALLIANCE       SUNNY     53  22  29 W9        29.49F
CHADRON        SUNNY     41  24  51 W6        29.49F
KIMBALL        SUNNY     51  30  44 W3        29.53F
SIDNEY         SUNNY     52  25  35 VRB3      29.52F
$$

NEZ057>060-069>072-079>082-192100-
SOUTHWEST NEBRASKA

CITY           SKY/WX    TMP DP  RH WIND       PRES   REMARKS
NORTH PLATTE   CLOUDY    37  37 100 SW6       29.57F FOG     WCI  32
IMPERIAL       SUNNY     41  32  70 S6        29.54F
LEXINGTON      CLOUDY    42  41  95 S8        29.57F FOG
MCCOOK         CLOUDY    35  35 100 W6        29.57F FOG     WCI  30
OGALLALA       SUNNY     47  32  56 CALM      29.54F
$$

NEZ005>010-023>029-035>040-094-192100-
NORTH CENTRAL NEBRASKA

CITY           SKY/WX    TMP DP  RH WIND       PRES   REMARKS
VALENTINE      SUNNY     55  19  24 SW16      29.48F
AINSWORTH      PTSUNNY   40  37  88 S12       29.52F WCI  33
BROKEN BOW     CLOUDY    41  41 100 SW8       29.55F FOG
O`NEILL        CLOUDY    43  42  97 S10       29.57S FOG
ORD            CLOUDY    41  40  96 S7        29.57F FOG
THEDFORD       CLOUDY    38  34  85 S15       29.55F WCI  29
$$

NEZ041-046>049-061>064-073>077-083>087-192100-
SOUTH CENTRAL NEBRASKA

CITY           SKY/WX    TMP DP  RH WIND       PRES   REMARKS
GRAND ISLAND   CLOUDY    41  41 100 S8        29.62F FOG
AURORA         CLOUDY    41  41 100 S7        29.62F FOG
HASTINGS       CLOUDY    42  41  96 S8        29.62F FOG
HEBRON         CLOUDY    43  43  99 SE8       29.65F FOG
HOLDREGE       CLOUDY    42  41  97 S6        29.59F FOG
KEARNEY *      CLOUDY    43  39  87 SE7       29.60F
YORK           SUNNY     41  41 100 SE12      29.63F FOG
$$

NEZ011>018-030>034-042>045-192100-
NORTHEAST NEBRASKA

CITY           SKY/WX    TMP DP  RH WIND       PRES   REMARKS
NORFOLK        CLOUDY    40  38  93 SE9       29.62F FOG     WCI  34
ALBION         FOG       39  39 100 SE6       29.61F VSB 1/4 WCI  35
BLAIR          CLOUDY    43  41  93 SE7       29.67F FOG
FREMONT        CLOUDY    42  42 100 SE7       29.67F FOG
TEKAMAH        FOG       39  38  96 CALM      29.68F VSB 1/2
WAYNE          CLOUDY    41  40  99 S12       29.64F FOG
$$

NEZ050>053-065>068-078-088>093-192100-
SOUTHEAST NEBRASKA

CITY           SKY/WX    TMP DP  RH WIND       PRES   REMARKS
LINCOLN        CLOUDY    43  41  93 S12       29.68F
OMAHA EPPLEY   CLOUDY    45  39  79 S7        29.68F FOG
BEATRICE       CLOUDY    43  42  96 S7        29.66F
FALLS CITY     CLOUDY    45  44  97 S7        29.67F
NEBRASKA CITY  CLOUDY    43  43 100 S6        29.67F FOG
PLATTSMOUTH    CLOUDY    43  40  90 S6        29.67F FOG
$$

NEZ044-045-051>053-067-192100-
OMAHA AREA

CITY           SKY/WX    TMP DP  RH WIND       PRES   REMARKS
OMAHA EPPLEY   CLOUDY    45  39  79 S7        29.68F FOG
BLAIR          CLOUDY    43  41  93 SE7       29.67F FOG
FREMONT        CLOUDY    42  42 100 SE7       29.67F FOG
MILLARD        CLOUDY    44  42  92 SE6       29.68F FOG
OFFUTT AFB     CLOUDY    43  43 100 S5        29.67F
PLATTSMOUTH    CLOUDY    43  40  90 S6        29.67F FOG
WAHOO          CLOUDY    42  41  97 SE12      29.67F FOG
$$




USA.gov is the U.S. government's official web portal to all federal, state and local government web resources and services.